Location: Milano
(45.4670°N, 9.2000°E)
Time: 20:57:49
(UTC+02:00)

ISS - Pass Details

Date: 17 May 2021
Orbit: 417 x 422 km, 51.6° (Epoch: 14 June)

Event Time Altitude Azimuth Distance (km) Brightness Sun altitude
Rises 00:26:41 0° 282° (WNW) 2,366 0.4 -24.1°
Reaches altitude 10° 00:28:58 10° 294° (WNW) 1,503 -0.5 -24.2°
Maximum altitude 00:31:56 28° 356° (N) 829 -1.6 -24.3°
Drops below altitude 10° 00:34:55 10° 57° (ENE) 1,507 -0.7 -24.4°
Sets 00:37:13 0° 70° (ENE) 2,373 0.2 -24.5°
